Location: Montreal
(45.5087°N, 73.5540°W)
Time: 18:41:25
(UTC-04:00)

Envisat - Pass Details

Date: 31 January 2023
Orbit: 763 x 765 km, 98.2° (Epoch: 20 March)

Event Time Altitude Azimuth Distance (km) Brightness Sun altitude
Rises 04:15:30 0° 12° (NNE) 3,243 6.5 -31.8°
Reaches altitude 10° 04:17:49 10° 11° (N) 2,312 5.6 -31.4°
Enters shadow 04:19:14 19° 9° (N) 1,760 5.0 -31.2°
